Starlink 5802

operational
NORAD ID: 56552 Int'l Des: 2023-065 Owner: SPXS Country: US Constellation: starlink
LEOCIRCULAR

Über Starlink 5802

Beschreibung wird geladen...

Live-Position

3D-Globus wird geladen...

Nächste Überflüge

Höhenverlauf

Altitude vs Time

uPlot chart will show altitude changes over time

Zweizeiliger Elementsatz

1 56552U 23065BB 26062.16668981 .00026401 00000-0 17541-2 0 9993
2 56552 42.9999 258.4402 0000897 301.5785 205.5920 15.06727621 5819
Epoch: 3. März 2026 • Age: 25 hours

Aktueller Status

Höhe 551.1 km
Geschwindigkeit 7.59 km/s
Subsatellitenpunkt -21.53°S, 77.85°W
Startdatum 14. Mai 2023
Alter 2.8 years
Typ internet

Technische Details

Klassifizierung Payload
Masse 305.00 kg
Trockenmasse 290.00 kg
Gesamtmasse 305.00 kg
Länge 0.20 m
Durchmesser 2.80 m
Spannweite 9.00 m
Form Box + pan
Hersteller SPXS
Bus-Typ Starlink
Phasenstatus In Orbit
Besitzer/Staat SPXS/US

Große Konstellationen

Loading constellations...